Weather History for Cross City, FL

Change the Weather History Date:

Thursday, June 20, 2013

  Actual Average Record
Temperature  
Mean Temperature 80 °F 80 °F  
Max Temperature 90 °F 91 °F 97 °F (1998)
Min Temperature 70 °F 70 °F 66 °F (2001)
Degree Days  
Heating Degree Days 0 0  
Month to date heating degree days 0 0  
Since 1 June heating degree days 0 0  
Since 1 July heating degree days 1133 1306  
Cooling Degree Days 15 15  
Month to date cooling degree days 281 291  
Year to date cooling degree days 816 770  
Since 1 June cooling degree days 281 291  
Growing Degree Days 30 (Base 50)    
Moisture  
Dew Point 70 °F    
Average Humidity 76    
Maximum Humidity 97    
Minimum Humidity 55    
Precipitation  
Precipitation 0.00 in 0.20 in 2.08 in (2004)
Month to date precipitation 5.68 3.18  
Year to date precipitation 18.22 20.35  
Sea Level Pressure  
Sea Level Pressure 30.06 in    
Wind  
Wind Speed 4 mph (SSW)    
Max Wind Speed 15 mph    
Max Gust Speed 22 mph    
T = Trace of Precipitation, MM = Missing Value Source: NWS Daily Summary

Daily Weather History Graph

Daily Weather History Graph

Search for Another Location

Airport:

Trip Planner

Search our weather history database for the weather conditions in past years. The results will help you decide how hot, cold, wet, or windy it might be!

Date:

Astronomy

Jun. 20, 2013 Rise Set
Actual Time 6:32 AM EDT 8:35 PM EDT
Civil Twilight 6:05 AM EDT 9:02 PM EDT
Nautical Twilight 5:32 AM EDT 9:36 PM EDT
Astronomical Twilight 4:56 AM EDT 10:11 PM EDT
Moon 5:43 PM EDT (6/20) 3:48 AM EDT (6/20)
Length of Visible Light 14h 57m
Length of Day
14h 02m
Waxing Gibbous, 89% of the Moon is Illuminated
Jun 20
Waxing Gibbous
Jun 23
Full
Jun 30
Last Quarter
Jul 8
New
Jul 15
First Quarter

Hourly Weather History & Observations

Time (EDT) Temp. Heat Index Dew Point Humidity Pressure Visibility Wind Dir Wind Speed Gust Speed Precip Events Conditions
12:53 AM 75.9 °F - 71.1 °F 85% 30.03 in - Calm Calm - 0.01 in   Unknown
1:53 AM 73.9 °F - 70.0 °F 87% 30.02 in - NE 3.5 mph - N/A   Unknown
2:53 AM 72.0 °F - 70.0 °F 93% 30.01 in - Calm Calm - N/A   Unknown
3:53 AM 71.1 °F - 68.0 °F 90% 30.00 in - Calm Calm - 0.01 in   Unknown
4:53 AM 71.1 °F - 68.0 °F 90% 30.01 in - Calm Calm - N/A   Unknown
5:53 AM 70.0 °F - 68.0 °F 93% 30.03 in - Calm Calm - N/A   Unknown
6:53 AM 70.0 °F - 68.0 °F 93% 30.04 in - Calm Calm - N/A   Unknown
7:53 AM 73.9 °F - 72.0 °F 93% 30.06 in - Calm Calm - N/A   Unknown
8:53 AM 78.1 °F - 73.0 °F 84% 30.08 in - Calm Calm - N/A   Unknown
9:53 AM 82.0 °F 88.6 °F 75.0 °F 79% 30.09 in - SSE 3.5 mph - N/A   Unknown
10:53 AM 86.0 °F 93.8 °F 73.9 °F 67% 30.09 in - SW 4.6 mph - N/A   Unknown
11:53 AM 87.1 °F 94.5 °F 73.0 °F 63% 30.09 in - West 8.1 mph - N/A   Unknown
12:53 PM 90.0 °F 96.4 °F 71.1 °F 54% 30.08 in - Variable 3.5 mph - N/A   Unknown
1:53 PM 87.1 °F 92.0 °F 70.0 °F 57% 30.07 in - South 10.4 mph - N/A   Unknown
2:53 PM 88.0 °F 95.6 °F 73.0 °F 61% 30.06 in - SSW 8.1 mph - N/A   Unknown
3:53 PM 81.0 °F 83.8 °F 68.0 °F 65% 30.06 in - SSW 11.5 mph - N/A   Unknown
4:53 PM 81.0 °F 84.1 °F 69.1 °F 67% 30.04 in - WSW 8.1 mph - N/A   Unknown
5:53 PM 84.9 °F 91.4 °F 73.0 °F 67% 30.04 in - NNW 8.1 mph - N/A   Unknown
6:53 PM 82.0 °F 85.5 °F 69.1 °F 65% 30.06 in - NNE 6.9 mph - N/A   Unknown
7:53 PM 80.1 °F 83.2 °F 70.0 °F 71% 30.07 in - ENE 4.6 mph - N/A   Unknown
8:53 PM 75.9 °F - 68.0 °F 76% 30.09 in - Calm Calm - N/A   Unknown
9:53 PM 75.0 °F - 68.0 °F 79% 30.07 in - NE 3.5 mph - N/A   Unknown
10:53 PM 75.0 °F - 69.1 °F 82% 30.09 in - NE 3.5 mph - N/A   Unknown
11:53 PM 73.9 °F - 70.0 °F 87% 30.10 in - Calm Calm - N/A   Unknown